Tracking 21045 objects as of 4-Aug-2020
HD Live streaming from Space Station
objects crossing your sky now

APSTAR 1

Track APSTAR 1 now!
APSTAR 1 is classified as:


NORAD ID: 23185
Int'l Code: 1994-043A
Perigee: 36,014.8 km
Apogee: 36,076.6 km
Inclination: 11.1 °
Period: 1,449.0 minutes
Semi major axis: 42416 km
RCS: 25.1188 m2 (large)
Launch date: July 21, 1994
Source: People's Republic of China (PRC)
Launch site: Xichang Space Center, China (XSC)

24 C-band transponders.
aabbcc
Your satellite tracking list
Your tracking list is empty




NASA's NSSDC Master Catalog

Two Line Element Set (TLE):
1 23185U 94043A   20216.71850622 -.00000117 +00000-0 +00000-0 0  9991
2 23185 011.1461 032.0065 0007289 003.8504 185.2960 00.99379769023776
Source of the keplerian elements: AFSPC